Year,Month,Day,Hour,Minute,Value (Times are PST for temperature in C)
2012,10,16,00,00,12.10
2012,10,16,00,01,12.00
2012,10,16,00,02,12.00
2012,10,16,00,03,12.00
2012,10,16,00,04,12.00
2012,10,16,00,05,12.00
2012,10,16,00,06,12.00
2012,10,16,00,07,11.90
2012,10,16,00,08,11.90
2012,10,16,00,09,11.90
2012,10,16,00,10,11.90
2012,10,16,00,11,11.90
2012,10,16,00,12,11.90
2012,10,16,00,13,11.90
2012,10,16,00,14,11.90
2012,10,16,00,15,11.90
2012,10,16,00,16,11.90
2012,10,16,00,17,11.90
2012,10,16,00,18,11.90
2012,10,16,00,19,11.90
2012,10,16,00,20,11.90
2012,10,16,00,21,11.90
2012,10,16,00,22,11.80
2012,10,16,00,23,11.80
2012,10,16,00,24,11.80
2012,10,16,00,25,11.80
2012,10,16,00,26,11.80
2012,10,16,00,27,11.80
2012,10,16,00,28,11.80
2012,10,16,00,29,11.80
2012,10,16,00,30,11.80
2012,10,16,00,31,11.80
2012,10,16,00,32,11.90
2012,10,16,00,33,11.90
2012,10,16,00,34,11.90
2012,10,16,00,35,11.90
2012,10,16,00,36,11.90
2012,10,16,00,37,11.90
2012,10,16,00,38,12.00
2012,10,16,00,39,12.10
2012,10,16,00,40,12.10
2012,10,16,00,41,12.10
2012,10,16,00,42,12.10
2012,10,16,00,43,12.10
2012,10,16,00,44,12.10
2012,10,16,00,45,12.20
2012,10,16,00,46,12.20
2012,10,16,00,47,12.20
2012,10,16,00,48,12.20
2012,10,16,00,49,12.20
2012,10,16,00,50,12.20
2012,10,16,00,51,12.20
2012,10,16,00,52,12.20
2012,10,16,00,53,12.20
2012,10,16,00,54,12.20
2012,10,16,00,55,12.20
2012,10,16,00,56,12.20
2012,10,16,00,57,12.20
2012,10,16,00,58,12.20
2012,10,16,00,59,12.20
2012,10,16,01,00,12.30
2012,10,16,01,01,12.30
2012,10,16,01,02,12.30
2012,10,16,01,03,12.30
2012,10,16,01,04,12.30
2012,10,16,01,05,12.30
2012,10,16,01,06,12.30
2012,10,16,01,07,12.20
2012,10,16,01,08,12.20
2012,10,16,01,09,12.20
2012,10,16,01,10,12.20
2012,10,16,01,11,12.20
2012,10,16,01,12,12.10
2012,10,16,01,13,12.10
2012,10,16,01,14,12.10
2012,10,16,01,15,12.00
2012,10,16,01,16,12.00
2012,10,16,01,17,12.00
2012,10,16,01,18,11.90
2012,10,16,01,19,11.90
2012,10,16,01,20,11.90
2012,10,16,01,21,11.90
2012,10,16,01,22,11.90
2012,10,16,01,23,11.90
2012,10,16,01,24,11.90
2012,10,16,01,25,11.90
2012,10,16,01,26,11.90
2012,10,16,01,27,11.90
2012,10,16,01,28,11.90
2012,10,16,01,29,11.90
2012,10,16,01,30,11.80
2012,10,16,01,31,11.80
2012,10,16,01,32,11.80
2012,10,16,01,33,11.80
2012,10,16,01,34,11.90
2012,10,16,01,35,11.90
2012,10,16,01,36,11.80
2012,10,16,01,37,11.80
2012,10,16,01,38,11.80
2012,10,16,01,39,11.80
2012,10,16,01,40,11.80
2012,10,16,01,41,11.80
2012,10,16,01,42,11.80
2012,10,16,01,43,11.80
2012,10,16,01,44,11.80
2012,10,16,01,45,11.80
2012,10,16,01,46,11.70
2012,10,16,01,47,11.70
2012,10,16,01,48,11.70
2012,10,16,01,49,11.70
2012,10,16,01,50,11.80
2012,10,16,01,51,11.80
2012,10,16,01,52,11.80
2012,10,16,01,53,11.70
2012,10,16,01,54,11.70
2012,10,16,01,55,11.70
2012,10,16,01,56,11.70
2012,10,16,01,57,11.70
2012,10,16,01,58,11.70
2012,10,16,01,59,11.60
2012,10,16,02,00,11.60
2012,10,16,02,01,11.60
2012,10,16,02,02,11.60
2012,10,16,02,03,11.60
2012,10,16,02,04,11.50
2012,10,16,02,05,11.50
2012,10,16,02,06,11.50
2012,10,16,02,07,11.40
2012,10,16,02,08,11.40
2012,10,16,02,09,11.40
2012,10,16,02,10,11.30
2012,10,16,02,11,11.30
2012,10,16,02,12,11.30
2012,10,16,02,13,11.30
2012,10,16,02,14,11.20
2012,10,16,02,15,11.20
2012,10,16,02,16,11.20
2012,10,16,02,17,11.10
2012,10,16,02,18,11.10
2012,10,16,02,19,11.10
2012,10,16,02,20,11.10
2012,10,16,02,21,11.00
2012,10,16,02,22,11.00
2012,10,16,02,23,11.00
2012,10,16,02,24,10.90
2012,10,16,02,25,10.90
2012,10,16,02,26,10.90
2012,10,16,02,27,10.90
2012,10,16,02,28,10.90
2012,10,16,02,29,10.90
2012,10,16,02,30,10.80
2012,10,16,02,31,10.90
2012,10,16,02,32,10.90
2012,10,16,02,33,10.90
2012,10,16,02,34,10.90
2012,10,16,02,35,11.00
2012,10,16,02,36,11.00
2012,10,16,02,37,11.00
2012,10,16,02,38,11.00
2012,10,16,02,39,11.00
2012,10,16,02,40,11.00
2012,10,16,02,41,11.00
2012,10,16,02,42,10.90
2012,10,16,02,43,10.90
2012,10,16,02,44,10.90
2012,10,16,02,45,10.90
2012,10,16,02,46,10.90
2012,10,16,02,47,10.90
2012,10,16,02,48,10.90
2012,10,16,02,49,10.90
2012,10,16,02,50,10.90
2012,10,16,02,51,10.90
2012,10,16,02,52,10.90
2012,10,16,02,53,10.90
2012,10,16,02,54,10.90
2012,10,16,02,55,10.90
2012,10,16,02,56,10.90
2012,10,16,02,57,10.90
2012,10,16,02,58,10.90
2012,10,16,02,59,11.00
2012,10,16,03,00,11.00
2012,10,16,03,01,11.00
2012,10,16,03,02,11.00
2012,10,16,03,03,11.00
2012,10,16,03,04,11.00
2012,10,16,03,05,11.00
2012,10,16,03,06,11.00
2012,10,16,03,07,11.00
2012,10,16,03,08,11.00
2012,10,16,03,09,11.00
2012,10,16,03,10,11.00
2012,10,16,03,11,11.00
2012,10,16,03,12,11.00
2012,10,16,03,13,11.00
2012,10,16,03,14,11.00
2012,10,16,03,15,11.10
2012,10,16,03,16,11.10
2012,10,16,03,17,11.30
2012,10,16,03,18,11.30
2012,10,16,03,19,11.40
2012,10,16,03,20,11.40
2012,10,16,03,21,11.40
2012,10,16,03,22,11.50
2012,10,16,03,23,11.50
2012,10,16,03,24,11.50
2012,10,16,03,25,11.60
2012,10,16,03,26,11.60
2012,10,16,03,27,11.60
2012,10,16,03,28,11.60
2012,10,16,03,29,11.60
2012,10,16,03,30,11.60
2012,10,16,03,31,11.60
2012,10,16,03,32,11.60
2012,10,16,03,33,11.60
2012,10,16,03,34,11.50
2012,10,16,03,35,11.60
2012,10,16,03,36,11.50
2012,10,16,03,37,11.50
2012,10,16,03,38,11.50
2012,10,16,03,39,11.60
2012,10,16,03,40,11.60
2012,10,16,03,41,11.60
2012,10,16,03,42,11.60
2012,10,16,03,43,11.60
2012,10,16,03,44,11.50
2012,10,16,03,45,11.50
2012,10,16,03,46,11.50
2012,10,16,03,47,11.50
2012,10,16,03,48,11.50
2012,10,16,03,49,11.50
2012,10,16,03,50,11.50
2012,10,16,03,51,11.50
2012,10,16,03,52,11.50
2012,10,16,03,53,11.50
2012,10,16,03,54,11.50
2012,10,16,03,55,11.50
2012,10,16,03,56,11.40
2012,10,16,03,57,11.40
2012,10,16,03,58,11.40
2012,10,16,03,59,11.40
2012,10,16,04,00,11.40
2012,10,16,04,01,11.30
2012,10,16,04,02,11.30
2012,10,16,04,03,11.20
2012,10,16,04,04,11.20
2012,10,16,04,05,11.20
2012,10,16,04,06,11.10
2012,10,16,04,07,11.10
2012,10,16,04,08,11.10
2012,10,16,04,09,11.10
2012,10,16,04,10,11.10
2012,10,16,04,11,11.10
2012,10,16,04,12,11.10
2012,10,16,04,13,11.00
2012,10,16,04,14,11.00
2012,10,16,04,15,11.00
2012,10,16,04,16,11.00
2012,10,16,04,17,11.00
2012,10,16,04,18,11.00
2012,10,16,04,19,11.00
2012,10,16,04,20,11.00
2012,10,16,04,21,11.00
2012,10,16,04,22,10.90
2012,10,16,04,23,10.90
2012,10,16,04,24,10.90
2012,10,16,04,25,10.90
2012,10,16,04,26,10.90
2012,10,16,04,27,10.90
2012,10,16,04,28,10.90
2012,10,16,04,29,10.80
2012,10,16,04,30,10.90
2012,10,16,04,31,10.90
2012,10,16,04,32,10.90
2012,10,16,04,33,10.90
2012,10,16,04,34,10.90
2012,10,16,04,35,10.90
2012,10,16,04,36,10.90
2012,10,16,04,37,10.90
2012,10,16,04,38,10.90
2012,10,16,04,39,10.90
2012,10,16,04,40,10.90
2012,10,16,04,41,10.90
2012,10,16,04,42,10.90
2012,10,16,04,43,10.90
2012,10,16,04,44,10.90
2012,10,16,04,45,10.80
2012,10,16,04,46,10.80
2012,10,16,04,47,10.80
2012,10,16,04,48,10.80
2012,10,16,04,49,10.80
2012,10,16,04,50,10.80
2012,10,16,04,51,10.80
2012,10,16,04,52,10.80
2012,10,16,04,53,10.80
2012,10,16,04,54,10.80
2012,10,16,04,55,10.80
2012,10,16,04,56,10.80
2012,10,16,04,57,10.70
2012,10,16,04,58,10.70
2012,10,16,04,59,10.70
2012,10,16,05,00,10.70
2012,10,16,05,01,10.60
2012,10,16,05,02,10.60
2012,10,16,05,03,10.60
2012,10,16,05,04,10.60
2012,10,16,05,05,10.60
2012,10,16,05,06,10.60
2012,10,16,05,07,10.60
2012,10,16,05,08,10.60
2012,10,16,05,09,10.60
2012,10,16,05,10,10.60
2012,10,16,05,11,10.60
2012,10,16,05,12,10.60
2012,10,16,05,13,10.70
2012,10,16,05,14,10.70
2012,10,16,05,15,10.70
2012,10,16,05,16,10.70
2012,10,16,05,17,10.80
2012,10,16,05,18,10.80
2012,10,16,05,19,10.80
2012,10,16,05,20,10.80
2012,10,16,05,21,10.80
2012,10,16,05,22,10.80
2012,10,16,05,23,10.80
2012,10,16,05,24,10.80
2012,10,16,05,25,10.80
2012,10,16,05,26,10.80
2012,10,16,05,27,10.80
2012,10,16,05,28,10.80
2012,10,16,05,29,10.80
2012,10,16,05,30,10.70
2012,10,16,05,31,10.70
2012,10,16,05,32,10.70
2012,10,16,05,33,10.70
2012,10,16,05,34,10.70
2012,10,16,05,35,10.60
2012,10,16,05,36,10.60
2012,10,16,05,37,10.60
2012,10,16,05,38,10.50
2012,10,16,05,39,10.50
2012,10,16,05,40,10.50
2012,10,16,05,41,10.40
2012,10,16,05,42,10.40
2012,10,16,05,43,10.40
2012,10,16,05,44,10.40
2012,10,16,05,45,10.40
2012,10,16,05,46,10.40
2012,10,16,05,47,10.40
2012,10,16,05,48,10.40
2012,10,16,05,49,10.40
2012,10,16,05,50,10.30
2012,10,16,05,51,10.30
2012,10,16,05,52,10.30
2012,10,16,05,53,10.30
2012,10,16,05,54,10.30
2012,10,16,05,55,10.30
2012,10,16,05,56,10.20
2012,10,16,05,57,10.20
2012,10,16,05,58,10.10
2012,10,16,05,59,10.10
2012,10,16,06,00,10.10
2012,10,16,06,01,10.10
2012,10,16,06,02,10.10
2012,10,16,06,03,10.10
2012,10,16,06,04,10.10
2012,10,16,06,05,10.10
2012,10,16,06,06,10.10
2012,10,16,06,07,10.10
2012,10,16,06,08,10.10
2012,10,16,06,09,10.10
2012,10,16,06,10,10.10
2012,10,16,06,11,10.10
2012,10,16,06,12,10.10
2012,10,16,06,13,10.10
2012,10,16,06,14,10.10
2012,10,16,06,15,10.00
2012,10,16,06,16,10.00
2012,10,16,06,17,10.00
2012,10,16,06,18,10.00
2012,10,16,06,19,10.00
2012,10,16,06,20,10.00
2012,10,16,06,21,10.00
2012,10,16,06,22,9.90
2012,10,16,06,23,9.90
2012,10,16,06,24,9.90
2012,10,16,06,25,9.90
2012,10,16,06,26,9.90
2012,10,16,06,27,9.90
2012,10,16,06,28,9.90
2012,10,16,06,29,9.80
2012,10,16,06,30,9.80
2012,10,16,06,31,9.80
2012,10,16,06,32,9.80
2012,10,16,06,33,9.80
2012,10,16,06,34,9.80
2012,10,16,06,35,9.80
2012,10,16,06,36,9.80
2012,10,16,06,37,9.80
2012,10,16,06,38,9.90
2012,10,16,06,39,9.80
2012,10,16,06,40,9.80
2012,10,16,06,41,9.80
2012,10,16,06,42,9.80
2012,10,16,06,43,9.80
2012,10,16,06,44,9.80
2012,10,16,06,45,9.80
2012,10,16,06,46,9.80
2012,10,16,06,47,9.80
2012,10,16,06,48,9.80
2012,10,16,06,49,9.80
2012,10,16,06,50,9.80
2012,10,16,06,51,9.70
2012,10,16,06,52,9.70
2012,10,16,06,53,9.60
2012,10,16,06,54,9.50
2012,10,16,06,55,9.40
2012,10,16,06,56,9.30
2012,10,16,06,57,9.20
2012,10,16,06,58,9.10
2012,10,16,06,59,9.00
2012,10,16,07,00,9.00
2012,10,16,07,01,8.90
2012,10,16,07,02,8.80
2012,10,16,07,03,8.70
2012,10,16,07,04,8.70
2012,10,16,07,05,8.60
2012,10,16,07,06,8.60
2012,10,16,07,07,8.60
2012,10,16,07,08,8.60
2012,10,16,07,09,8.60
2012,10,16,07,10,8.50
2012,10,16,07,11,8.50
2012,10,16,07,12,8.50
2012,10,16,07,13,8.50
2012,10,16,07,14,8.60
2012,10,16,07,15,8.60
2012,10,16,07,16,8.60
2012,10,16,07,17,8.60
2012,10,16,07,18,8.60
2012,10,16,07,19,8.60
2012,10,16,07,20,8.60
2012,10,16,07,21,8.60
2012,10,16,07,22,8.70
2012,10,16,07,23,8.70
2012,10,16,07,24,8.70
2012,10,16,07,25,8.70
2012,10,16,07,26,8.60
2012,10,16,07,27,8.60
2012,10,16,07,28,8.70
2012,10,16,07,29,8.70
2012,10,16,07,30,8.70
2012,10,16,07,31,8.70
2012,10,16,07,32,8.70
2012,10,16,07,33,8.70
2012,10,16,07,34,8.70
2012,10,16,07,35,8.70
2012,10,16,07,36,8.70
2012,10,16,07,37,8.70
2012,10,16,07,38,8.70
2012,10,16,07,39,8.70
2012,10,16,07,40,8.70
2012,10,16,07,41,8.70
2012,10,16,07,42,8.70
2012,10,16,07,43,8.70
2012,10,16,07,44,8.70
2012,10,16,07,45,8.60
2012,10,16,07,46,8.60
2012,10,16,07,47,8.60
2012,10,16,07,48,8.60
2012,10,16,07,49,8.60
2012,10,16,07,50,8.60
2012,10,16,07,51,8.60
2012,10,16,07,52,8.60
2012,10,16,07,53,8.60
2012,10,16,07,54,8.70
2012,10,16,07,55,8.70
2012,10,16,07,56,8.70
2012,10,16,07,57,8.80
2012,10,16,07,58,8.80
2012,10,16,07,59,8.90
2012,10,16,08,00,9.00
2012,10,16,08,01,9.00
2012,10,16,08,02,9.10
2012,10,16,08,03,9.20
2012,10,16,08,04,9.30
2012,10,16,08,05,9.30
2012,10,16,08,06,9.40
2012,10,16,08,07,9.40
2012,10,16,08,08,9.40
2012,10,16,08,09,9.50
2012,10,16,08,10,9.60
2012,10,16,08,11,9.60
2012,10,16,08,12,9.70
2012,10,16,08,13,9.80
2012,10,16,08,14,9.80
2012,10,16,08,15,9.90
2012,10,16,08,16,10.00
2012,10,16,08,17,10.10
2012,10,16,08,18,10.10
2012,10,16,08,19,10.20
2012,10,16,08,20,10.30
2012,10,16,08,21,10.30
2012,10,16,08,22,10.40
2012,10,16,08,23,10.40
2012,10,16,08,24,10.50
2012,10,16,08,25,10.60
2012,10,16,08,26,10.60
2012,10,16,08,27,10.70
2012,10,16,08,28,10.70
2012,10,16,08,29,10.70
2012,10,16,08,30,10.80
2012,10,16,08,31,10.80
2012,10,16,08,32,10.80
2012,10,16,08,33,10.90
2012,10,16,08,34,10.90
2012,10,16,08,35,10.90
2012,10,16,08,36,11.00
2012,10,16,08,37,11.00
2012,10,16,08,38,11.10
2012,10,16,08,39,11.10
2012,10,16,08,40,11.10
2012,10,16,08,41,11.20
2012,10,16,08,42,11.20
2012,10,16,08,43,11.20
2012,10,16,08,44,11.20
2012,10,16,08,45,11.20
2012,10,16,08,46,11.30
2012,10,16,08,47,11.30
2012,10,16,08,48,11.30
2012,10,16,08,49,11.30
2012,10,16,08,50,11.40
2012,10,16,08,51,11.40
2012,10,16,08,52,11.40
2012,10,16,08,53,11.40
2012,10,16,08,54,11.40
2012,10,16,08,55,11.40
2012,10,16,08,56,11.40
2012,10,16,08,57,11.50
2012,10,16,08,58,11.50
2012,10,16,08,59,11.50
2012,10,16,09,00,11.50
2012,10,16,09,01,11.60
2012,10,16,09,02,11.60
2012,10,16,09,03,11.60
2012,10,16,09,04,11.70
2012,10,16,09,05,11.70
2012,10,16,09,06,11.70
2012,10,16,09,07,11.80
2012,10,16,09,08,11.80
2012,10,16,09,09,11.90
2012,10,16,09,10,11.90
2012,10,16,09,11,11.90
2012,10,16,09,12,11.90
2012,10,16,09,13,11.90
2012,10,16,09,14,11.90
2012,10,16,09,15,11.90
2012,10,16,09,16,11.90
2012,10,16,09,17,11.90
2012,10,16,09,18,11.90
2012,10,16,09,19,11.90
2012,10,16,09,20,12.00
2012,10,16,09,21,12.00
2012,10,16,09,22,12.00
2012,10,16,09,23,12.10
2012,10,16,09,24,12.10
2012,10,16,09,25,12.20
2012,10,16,09,26,12.20
2012,10,16,09,27,12.20
2012,10,16,09,28,12.20
2012,10,16,09,29,12.20
2012,10,16,09,30,12.20
2012,10,16,09,31,12.20
2012,10,16,09,32,12.30
2012,10,16,09,33,12.30
2012,10,16,09,34,12.30
2012,10,16,09,35,12.30
2012,10,16,09,36,12.40
2012,10,16,09,37,12.40
2012,10,16,09,38,12.40
2012,10,16,09,39,12.50
2012,10,16,09,40,12.50
2012,10,16,09,41,12.50
2012,10,16,09,42,12.60
2012,10,16,09,43,12.60
2012,10,16,09,44,12.60
2012,10,16,09,45,12.70
2012,10,16,09,46,12.70
2012,10,16,09,47,12.70
2012,10,16,09,48,12.80
2012,10,16,09,49,12.80
2012,10,16,09,50,12.80
2012,10,16,09,51,12.70
2012,10,16,09,52,12.70
2012,10,16,09,53,12.70
2012,10,16,09,54,12.70
2012,10,16,09,55,12.70
2012,10,16,09,56,12.70
2012,10,16,09,57,12.70
2012,10,16,09,58,12.70
2012,10,16,09,59,12.80
2012,10,16,10,00,12.80
2012,10,16,10,01,12.90
2012,10,16,10,02,12.90
2012,10,16,10,03,13.00
2012,10,16,10,04,13.10
2012,10,16,10,05,13.10
2012,10,16,10,06,13.20
2012,10,16,10,07,13.20
2012,10,16,10,08,13.20
2012,10,16,10,09,13.20
2012,10,16,10,10,13.30
2012,10,16,10,11,13.30
2012,10,16,10,12,13.30
2012,10,16,10,13,13.30
2012,10,16,10,14,13.30
2012,10,16,10,15,13.30
2012,10,16,10,16,13.20
2012,10,16,10,17,13.20
2012,10,16,10,18,13.20
2012,10,16,10,19,13.20
2012,10,16,10,20,13.20
2012,10,16,10,21,13.20
2012,10,16,10,22,13.20
2012,10,16,10,23,13.30
2012,10,16,10,24,13.30
2012,10,16,10,25,13.30
2012,10,16,10,26,13.30
2012,10,16,10,27,13.30
2012,10,16,10,28,13.40
2012,10,16,10,29,13.40
2012,10,16,10,30,13.50
2012,10,16,10,31,13.50
2012,10,16,10,32,13.60
2012,10,16,10,33,13.60
2012,10,16,10,34,13.70
2012,10,16,10,35,13.70
2012,10,16,10,36,13.70
2012,10,16,10,37,13.60
2012,10,16,10,38,13.60
2012,10,16,10,39,13.60
2012,10,16,10,40,13.60
2012,10,16,10,41,13.60
2012,10,16,10,42,13.60
2012,10,16,10,43,13.60
2012,10,16,10,44,13.70
2012,10,16,10,45,13.70
2012,10,16,10,46,13.80
2012,10,16,10,47,13.80
2012,10,16,10,48,13.90
2012,10,16,10,49,13.90
2012,10,16,10,50,13.90
2012,10,16,10,51,13.90
2012,10,16,10,52,13.90
2012,10,16,10,53,13.90
2012,10,16,10,54,13.90
2012,10,16,10,55,13.90
2012,10,16,10,56,13.90
2012,10,16,10,57,13.90
2012,10,16,10,58,13.90
2012,10,16,10,59,13.90
2012,10,16,11,00,13.90
2012,10,16,11,01,13.90
2012,10,16,11,02,14.00
2012,10,16,11,03,14.00
2012,10,16,11,04,13.90
2012,10,16,11,05,13.90
2012,10,16,11,06,13.90
2012,10,16,11,07,13.90
2012,10,16,11,08,13.90
2012,10,16,11,09,13.90
2012,10,16,11,10,13.90
2012,10,16,11,11,13.90
2012,10,16,11,12,13.90
2012,10,16,11,13,13.90
2012,10,16,11,14,13.90
2012,10,16,11,15,13.90
2012,10,16,11,16,13.90
2012,10,16,11,17,13.80
2012,10,16,11,18,13.80
2012,10,16,11,19,13.80
2012,10,16,11,20,13.70
2012,10,16,11,21,13.70
2012,10,16,11,22,13.70
2012,10,16,11,23,13.70
2012,10,16,11,24,13.70
2012,10,16,11,25,13.70
2012,10,16,11,26,13.70
2012,10,16,11,27,13.70
2012,10,16,11,28,13.70
2012,10,16,11,29,13.70
2012,10,16,11,30,13.70
2012,10,16,11,31,13.70
2012,10,16,11,32,13.70
2012,10,16,11,33,13.70
2012,10,16,11,34,13.70
2012,10,16,11,35,13.70
2012,10,16,11,36,13.70
2012,10,16,11,37,13.60
2012,10,16,11,38,13.60
2012,10,16,11,39,13.60
2012,10,16,11,40,13.60
2012,10,16,11,41,13.70
2012,10,16,11,42,13.70
2012,10,16,11,43,13.80
2012,10,16,11,44,13.90
2012,10,16,11,45,14.00
2012,10,16,11,46,14.00
2012,10,16,11,47,14.10
2012,10,16,11,48,14.20
2012,10,16,11,49,14.20
2012,10,16,11,50,14.30
2012,10,16,11,51,14.30
2012,10,16,11,52,14.30
2012,10,16,11,53,14.30
2012,10,16,11,54,14.30
2012,10,16,11,55,14.30
2012,10,16,11,56,14.30
2012,10,16,11,57,14.30
2012,10,16,11,58,14.30
2012,10,16,11,59,14.40
2012,10,16,12,00,14.40
2012,10,16,12,01,14.40
2012,10,16,12,02,14.40
2012,10,16,12,03,14.40
2012,10,16,12,04,14.50
2012,10,16,12,05,14.40
2012,10,16,12,06,14.40
2012,10,16,12,07,14.30
2012,10,16,12,08,14.30
2012,10,16,12,09,14.30
2012,10,16,12,10,14.20
2012,10,16,12,11,14.20
2012,10,16,12,12,14.10
2012,10,16,12,13,14.10
2012,10,16,12,14,14.10
2012,10,16,12,15,14.10
2012,10,16,12,16,14.10
2012,10,16,12,17,14.00
2012,10,16,12,18,13.90
2012,10,16,12,19,13.80
2012,10,16,12,20,13.70
2012,10,16,12,21,13.60
2012,10,16,12,22,13.60
2012,10,16,12,23,13.60
2012,10,16,12,24,13.60
2012,10,16,12,25,13.70
2012,10,16,12,26,13.80
2012,10,16,12,27,13.80
2012,10,16,12,28,13.90
2012,10,16,12,29,13.90
2012,10,16,12,30,14.00
2012,10,16,12,31,14.00
2012,10,16,12,32,14.10
2012,10,16,12,33,14.20
2012,10,16,12,34,14.30
2012,10,16,12,35,14.40
2012,10,16,12,36,14.40
2012,10,16,12,37,14.50
2012,10,16,12,38,14.60
2012,10,16,12,39,14.70
2012,10,16,12,40,14.70
2012,10,16,12,41,14.80
2012,10,16,12,42,14.80
2012,10,16,12,43,14.70
2012,10,16,12,44,14.70
2012,10,16,12,45,14.70
2012,10,16,12,46,14.70
2012,10,16,12,47,14.70
2012,10,16,12,48,14.70
2012,10,16,12,49,14.70
2012,10,16,12,50,14.80
2012,10,16,12,51,14.80
2012,10,16,12,52,14.90
2012,10,16,12,53,15.00
2012,10,16,12,54,15.00
2012,10,16,12,55,15.10
2012,10,16,12,56,15.10
2012,10,16,12,57,15.20
2012,10,16,12,58,15.10
2012,10,16,12,59,15.10
2012,10,16,13,00,15.10
2012,10,16,13,01,15.00
2012,10,16,13,02,15.00
2012,10,16,13,03,14.90
2012,10,16,13,04,14.90
2012,10,16,13,05,14.80
2012,10,16,13,06,14.80
2012,10,16,13,07,14.70
2012,10,16,13,08,14.70
2012,10,16,13,09,14.70
2012,10,16,13,10,14.70
2012,10,16,13,11,14.60
2012,10,16,13,12,14.60
2012,10,16,13,13,14.50
2012,10,16,13,14,14.50
2012,10,16,13,15,14.40
2012,10,16,13,16,14.40
2012,10,16,13,17,14.30
2012,10,16,13,18,14.30
2012,10,16,13,19,14.20
2012,10,16,13,20,14.20
2012,10,16,13,21,14.20
2012,10,16,13,22,14.20
2012,10,16,13,23,14.20
2012,10,16,13,24,14.20
2012,10,16,13,25,14.30
2012,10,16,13,26,14.40
2012,10,16,13,27,14.40
2012,10,16,13,28,14.50
2012,10,16,13,29,14.60
2012,10,16,13,30,14.70
2012,10,16,13,31,14.80
2012,10,16,13,32,14.80
2012,10,16,13,33,14.80
2012,10,16,13,34,14.80
2012,10,16,13,35,14.80
2012,10,16,13,36,14.80
2012,10,16,13,37,14.80
2012,10,16,13,38,14.80
2012,10,16,13,39,14.80
2012,10,16,13,40,14.70
2012,10,16,13,41,14.70
2012,10,16,13,42,14.70
2012,10,16,13,43,14.60
2012,10,16,13,44,14.60
2012,10,16,13,45,14.60
2012,10,16,13,46,14.60
2012,10,16,13,47,14.70
2012,10,16,13,48,14.70
2012,10,16,13,49,14.70
2012,10,16,13,50,14.70
2012,10,16,13,51,14.70
2012,10,16,13,52,14.60
2012,10,16,13,53,14.60
2012,10,16,13,54,14.70
2012,10,16,13,55,14.70
2012,10,16,13,56,14.60
2012,10,16,13,57,14.60
2012,10,16,13,58,14.60
2012,10,16,13,59,14.50
2012,10,16,14,00,14.50
2012,10,16,14,01,14.40
2012,10,16,14,02,14.40
2012,10,16,14,03,14.40
2012,10,16,14,04,14.40
2012,10,16,14,05,14.40
2012,10,16,14,06,14.50
2012,10,16,14,07,14.50
2012,10,16,14,08,14.60
2012,10,16,14,09,14.60
2012,10,16,14,10,14.60
2012,10,16,14,11,14.70
2012,10,16,14,12,14.70
2012,10,16,14,13,14.70
2012,10,16,14,14,14.70
2012,10,16,14,15,14.80
2012,10,16,14,16,14.80
2012,10,16,14,17,14.80
2012,10,16,14,18,14.80
2012,10,16,14,19,14.80
2012,10,16,14,20,14.80
2012,10,16,14,21,14.80
2012,10,16,14,22,14.80
2012,10,16,14,23,14.70
2012,10,16,14,24,14.70
2012,10,16,14,25,14.70
2012,10,16,14,26,14.70
2012,10,16,14,27,14.70
2012,10,16,14,28,14.70
2012,10,16,14,29,14.70
2012,10,16,14,30,14.70
2012,10,16,14,31,14.60
2012,10,16,14,32,14.60
2012,10,16,14,33,14.60
2012,10,16,14,34,14.60
2012,10,16,14,35,14.50
2012,10,16,14,36,14.50
2012,10,16,14,37,14.50
2012,10,16,14,38,14.50
2012,10,16,14,39,14.40
2012,10,16,14,40,14.40
2012,10,16,14,41,14.40
2012,10,16,14,42,14.40
2012,10,16,14,43,14.40
2012,10,16,14,44,14.40
2012,10,16,14,45,14.40
2012,10,16,14,46,14.40
2012,10,16,14,47,14.40
2012,10,16,14,48,14.50
2012,10,16,14,49,14.50
2012,10,16,14,50,14.60
2012,10,16,14,51,14.60
2012,10,16,14,52,14.60
2012,10,16,14,53,14.60
2012,10,16,14,54,14.60
2012,10,16,14,55,14.60
2012,10,16,14,56,14.60
2012,10,16,14,57,14.50
2012,10,16,14,58,14.40
2012,10,16,14,59,14.40
2012,10,16,15,00,14.40
2012,10,16,15,01,14.40
2012,10,16,15,02,14.50
2012,10,16,15,03,14.50
2012,10,16,15,04,14.60
2012,10,16,15,05,14.70
2012,10,16,15,06,14.80
2012,10,16,15,07,14.80
2012,10,16,15,08,14.80
2012,10,16,15,09,14.80
2012,10,16,15,10,14.90
2012,10,16,15,11,14.90
2012,10,16,15,12,14.90
2012,10,16,15,13,14.90
2012,10,16,15,14,14.90
2012,10,16,15,15,14.90
2012,10,16,15,16,14.90
2012,10,16,15,17,14.80
2012,10,16,15,18,14.80
2012,10,16,15,19,14.80
2012,10,16,15,20,14.80
2012,10,16,15,21,14.80
2012,10,16,15,22,14.80
2012,10,16,15,23,14.80
2012,10,16,15,24,14.80
2012,10,16,15,25,14.80
2012,10,16,15,26,14.80
2012,10,16,15,27,14.80
2012,10,16,15,28,14.80
2012,10,16,15,29,14.80
2012,10,16,15,30,14.70
2012,10,16,15,31,14.70
2012,10,16,15,32,14.60
2012,10,16,15,33,14.60
2012,10,16,15,34,14.60
2012,10,16,15,35,14.60
2012,10,16,15,36,14.60
2012,10,16,15,37,14.60
2012,10,16,15,38,14.60
2012,10,16,15,39,14.60
2012,10,16,15,40,14.60
2012,10,16,15,41,14.60
2012,10,16,15,42,14.70
2012,10,16,15,43,14.70
2012,10,16,15,44,14.70
2012,10,16,15,45,14.70
2012,10,16,15,46,14.70
2012,10,16,15,47,14.70
2012,10,16,15,48,14.70
2012,10,16,15,49,14.70
2012,10,16,15,50,14.70
2012,10,16,16,40,13.30
2012,10,16,16,41,13.30
2012,10,16,16,42,13.30
2012,10,16,16,43,13.30
2012,10,16,16,44,13.20
2012,10,16,16,45,13.20
2012,10,16,16,46,13.20
2012,10,16,16,47,13.20
2012,10,16,16,48,13.20
2012,10,16,16,49,13.20
2012,10,16,16,50,13.20
2012,10,16,16,51,13.20
2012,10,16,16,52,13.10
2012,10,16,16,53,13.10
2012,10,16,16,54,13.10
2012,10,16,16,55,13.10
2012,10,16,16,56,13.10
2012,10,16,16,57,13.10
2012,10,16,16,58,13.10
2012,10,16,16,59,13.10
2012,10,16,17,00,13.10
2012,10,16,17,01,13.10
2012,10,16,17,02,13.10
2012,10,16,17,03,13.10
2012,10,16,17,04,13.10
2012,10,16,17,05,13.10
2012,10,16,17,06,13.00
2012,10,16,17,07,13.00
2012,10,16,17,08,13.00
2012,10,16,17,09,13.00
2012,10,16,17,10,12.90
2012,10,16,17,11,12.90
2012,10,16,17,12,12.90
2012,10,16,17,13,12.90
2012,10,16,17,14,12.90
2012,10,16,17,15,12.80
2012,10,16,17,16,12.80
2012,10,16,17,17,12.80
2012,10,16,17,18,12.80
2012,10,16,17,19,12.80
2012,10,16,17,20,12.70
2012,10,16,17,21,12.70
2012,10,16,17,22,12.70
2012,10,16,17,23,12.70
2012,10,16,17,24,12.70
2012,10,16,17,25,12.60
2012,10,16,17,26,12.60
2012,10,16,17,27,12.60
2012,10,16,17,28,12.60
2012,10,16,17,29,12.50
2012,10,16,17,30,12.50
2012,10,16,17,31,12.50
2012,10,16,17,32,12.40
2012,10,16,17,33,12.40
2012,10,16,17,34,12.40
2012,10,16,17,35,12.40
2012,10,16,17,36,12.40
2012,10,16,17,37,12.40
2012,10,16,17,38,12.30
2012,10,16,17,39,12.30
2012,10,16,17,40,12.30
2012,10,16,17,41,12.30
2012,10,16,17,42,12.30
2012,10,16,17,43,12.30
2012,10,16,17,44,12.20
2012,10,16,17,45,12.20
2012,10,16,17,46,12.20
2012,10,16,17,47,12.20
2012,10,16,17,48,12.20
2012,10,16,17,49,12.10
2012,10,16,17,50,12.10
2012,10,16,17,51,12.10
2012,10,16,17,52,12.10
2012,10,16,17,53,12.10
2012,10,16,17,54,12.10
2012,10,16,17,55,12.00
2012,10,16,17,56,12.00
2012,10,16,17,57,12.00
2012,10,16,17,58,11.90
2012,10,16,17,59,11.90
2012,10,16,18,00,11.90
2012,10,16,18,01,11.90
2012,10,16,18,02,11.90
2012,10,16,18,03,11.90
2012,10,16,18,04,11.90
2012,10,16,18,05,11.80
2012,10,16,18,06,11.80
2012,10,16,18,07,11.80
2012,10,16,18,08,11.80
2012,10,16,18,09,11.80
2012,10,16,18,10,11.80
2012,10,16,18,11,11.70
2012,10,16,18,12,11.70
2012,10,16,18,13,11.70